PROGRESS-MS 15 (45937 NORAD) Tracking and Keplerian Element Data

This shows tracking and keplerian element data for the satellite.

Feedback or suggestion? Click here.




ElementValue
Catalog45937
NamePROGRESS-MS 15
Epoch Orbit293
Epoch Day224.50434779
Epoch Year2020
RAAN74.69
Inclination51.6457
Eccentricity0.0001336
Argument of Perigee29.9546
Mean Anonmoly49.1857
Mean Motion15.49159509
Decay Rate9.04E-06
L11 45937U 20050A 20224.50434779 .00000904 00000-0 24423-4 0 9996
L22 45937 51.6457 74.6900 0001336 29.9546 49.1857 15.49159509 2938

Live tracking and technical data element details for PROGRESS-MS 15 (NORAD 45937). PROGRESS-MS 15 can be tracked NOW for your location showing map with azimuth and elevation plus other details from your city location.

Track the satellite on the map from your city or location and see movement details for azimuth, elevation, latitude, longitude, range, height, and movement on the map or in text.







IsCatalogInMostPopularTable: catalog: 45937, numindb: 1
Update: records affected: 1



GetName: 45937 PROGRESS-MS 15

Hit Count: updated at: Fri, 14 Aug 2020 04:33:02 GMT